This demonstration page uses our WeatherBlox Daily Observations layout. Learn more.

38.88101, -77.10428

Hourly Observations for March 30, 2018

Temp ( °F °C ) Dew Point ( °F °C ) Humidity (%) Winds ( mph kmh ) Pressure ( in mb ) Visibility ( mi km ) Precip ( " mm )
12:52 am 00:52 Cloudy 72 22.2 53 11.7 52 52 SSW 14 22 29.76 1008 10 16.0934 0 0
1:52 am 01:52 Mostly Cloudy 71 21.7 54 12.2 55 55 SSW 14 22 29.77 1008 10 16.0934 0 0
2:52 am 02:52 Cloudy 63 17.2 52 11.1 68 68 S 16 26 29.75 1008 10 16.0934 0 0
3:52 am 03:52 Cloudy 68 20 54 12.2 61 61 S 10 17 29.75 1007 10 16.0934 0 0
4:52 am 04:52 Cloudy 67 19.4 54 12.2 63 63 S 15 24 29.72 1006 10 16.0934 0 0
5:52 am 05:52 Cloudy 68 20 54 12.2 61 61 S 9 15 29.71 1006 10 16.0934 0 0
6:52 am 06:52 Cloudy 67 19.4 55 12.8 66 66 SSW 12 19 29.72 1007 10 16.0934 0 0
7:52 am 07:52 Cloudy 67 19.4 56 13.3 68 68 SSW 13 20 29.74 1007 10 16.0934 0 0
8:52 am 08:52 Cloudy 68 20 56 13.3 65 65 SSW 14 22 29.75 1007 10 16.0934 0 0
9:52 am 09:52 Cloudy 69 20.6 57 13.9 66 66 SSW 14 22 29.75 1007 10 16.0934 0 0
10:52 am 10:52 Cloudy 72 22.2 57 13.9 59 59 SW 14 22 29.75 1007 10 16.0934 0 0
11:52 am 11:52 Cloudy 74 23.3 54 12.2 50 50 SW 16 26 29.74 1007 10 16.0934 0 0
12:52 pm 12:52 Cloudy 72 22.2 52 11.1 50 50 NW 23 37 29.74 1007 10 16.0934 0 0
1:00 pm 13:00 Cloudy 67 19.4 52 11.1 59 59 NNW 23 37 29.74 1007 10 16.0934 0 0
1:52 pm 13:52 Cloudy 62 16.7 52 11.1 70 70 NW 15 24 29.77 1008 10 16.0934 0 0
2:52 pm 14:52 Cloudy 61 16.1 45 7.2 56 56 NW 22 35 29.81 1010 10 16.0934 0 0.0254
3:52 pm 15:52 Cloudy 56 13.3 43 6.1 62 62 N 24 39 29.87 1012 10 16.0934 0 0.0254
4:52 pm 16:52 Cloudy 55 12.8 40 4.4 57 57 NNW 24 39 29.92 1013 10 16.0934 0 0.0254
5:52 pm 17:52 Mostly Cloudy 55 12.8 39 3.9 55 55 NNW 20 31 29.94 1014 10 16.0934 0 0.0254
6:52 pm 18:52 Cloudy 54 12.2 36 2.2 51 51 NNW 20 31 29.98 1015 10 16.0934 0 0
7:52 pm 19:52 Mostly Cloudy 54 12.2 35 1.7 49 49 NW 21 33 30.01 1016 10 16.0934 0 0
8:52 pm 20:52 Mostly Cloudy 52 11.1 33 0.6 49 49 NNW 15 24 30.06 1018 10 16.0934 0 0
9:21 pm 21:21 Partly Cloudy 50 10 33 0.6 52 52 NW 17 28 30.09 1019 10 16.0934 0 0
9:52 pm 21:52 Mostly Clear 50 10 32 0 50 50 NW 14 22 30.11 1020 10 16.0934 0 0
10:52 pm 22:52 Mostly Clear 48 8.9 31 -0.6 52 52 NNW 18 30 30.14 1021 10 16.0934 0 0
11:52 pm 23:52 Clear 47 8.3 31 -0.6 54 54 NW 13 20 30.16 1022 10 16.0934 0 0

Powered by AerisWeather